Wind_Speed
32 31 30 28 27 24 21 19 17 14 13 14 15 15 17 19 20 20 22 22 21 20
31 31 30 29 26 24 22 20 19 17 16 16 17 17 19 22 23 22 22 22 21 21
33 31 30 29 28 26 24 22 21 20 19 19 19 20 21 23 22 22 22 21 20 20
32 30 29 28 27 27 26 25 23 24 22 22 22 23 24 24 23 23 22 20 19 19
32 29 30 30 30 29 28 27 27 25 24 24 24 25 25 25 22 23 22 20 18 17
34 34 33 33 31 30 29 29 28 27 26 26 26 26 24 24 22 21 20 18 16 15
35 36 36 36 34 33 31 32 31 29 28 27 27 25 24 24 23 21 19 17 14 14
37 37 37 37 36 34 33 33 32 31 30 28 27 26 28 25 24 22 20 17 15 13
36 37 39 38 37 36 35 32 32 32 32 31 29 27 27 26 24 22 20 18 15 13
36 36 37 38 37 37 37 34 35 32 32 32 29 30 28 26 25 23 20 17 15 14
37 38 37 37 39 38 38 37 36 36 34 32 31 29 28 25 24 22 19 16 14 13
33 32 35 37 38 38 39 39 37 36 35 33 31 30 29 28 26 23 21 17 14 13
30 36 40 38 42 41 39 41 38 37 36 34 34 33 32 31 29 27 24 19 16 14
32 32 30 35 37 40 40 37 37 37 36 35 35 34 34 33 31 30 27 24 21 17
Wind_Direction
203 200 197 192 185 181 182 177 171 170 164 156 153 147 143 136 130 129 122 117 111 102
203 199 196 190 187 182 180 176 172 170 165 158 154 151 146 137 131 127 120 115 111 103
202 200 197 187 183 180 178 177 172 168 165 157 154 153 148 138 133 127 119 117 111 105
198 192 191 187 185 181 179 178 175 173 167 162 159 157 150 141 138 129 123 120 116 110
194 191 190 189 186 184 181 180 177 175 170 166 162 158 152 146 143 135 128 125 123 117
192 191 190 188 185 184 183 181 180 176 176 170 166 160 157 152 146 139 134 129 127 126
192 193 192 189 186 186 185 183 182 179 178 175 171 166 160 157 150 144 139 133 131 131
195 193 192 189 187 186 187 187 184 180 179 177 175 173 169 165 157 153 145 140 137 134
189 191 190 187 187 185 186 186 185 184 182 178 177 179 178 173 166 163 157 150 146 142
182 182 187 184 186 188 186 184 186 187 186 183 181 180 180 179 176 170 166 159 154 150
180 181 182 185 183 189 190 187 188 188 190 187 183 183 181 180 179 175 173 171 165 165
180 174 176 178 183 188 189 190 191 191 191 189 185 186 186 182 180 178 178 179 176 174
184 183 184 185 186 191 193 192 193 193 195 194 188 187 190 187 182 178 179 180 179 177
192 191 192 187 185 185 185 193 194 198 197 198 195 189 192 194 189 186 181 181 181 178
Height
795 801 804 807 813 817 824 827 831 836 837 838 840 842 842 843 846 848 848 848 851 853
793 797 800 805 810 815 821 826 831 834 838 840 841 843 844 845 848 850 851 853 855 856
790 794 799 804 809 814 821 825 831 834 838 841 842 845 847 848 851 853 854 856 858 860
788 791 799 803 810 814 819 825 830 833 836 839 842 845 847 850 853 854 856 859 861 864
786 790 797 802 807 814 818 824 828 835 837 839 842 844 847 850 855 854 857 861 863 866
780 785 792 800 806 813 819 824 829 831 838 841 844 845 849 852 854 857 859 861 864 867
775 781 788 796 803 810 815 821 827 830 835 840 844 846 849 853 854 858 860 863 866 868
772 780 788 795 799 807 815 821 823 827 833 839 843 846 849 852 854 857 860 863 867 869
773 779 784 790 798 805 813 818 824 829 832 835 839 846 850 851 854 858 859 862 866 868
767 775 784 783 795 805 808 815 821 828 832 835 838 841 845 849 853 856 859 862 864 867
763 769 776 784 787 798 808 811 818 822 830 834 837 842 845 848 852 855 859 862 863 866
763 767 773 779 786 796 803 810 815 821 827 831 836 840 844 846 849 854 857 861 863 866
763 765 767 775 779 789 799 803 810 817 823 829 831 835 839 841 844 849 854 859 862 864
758 764 774 774 777 785 788 803 808 816 820 825 828 831 837 839 841 844 849 854 858 861